TimeCST,TemperatureF,Dew PointF,Humidity,Sea Level PressureIn,VisibilityMPH,Wind Direction,Wind SpeedMPH,Gust SpeedMPH,PrecipitationIn,Events,Conditions,WindDirDegrees,DateUTC
12:15 AM,35.8,28.9,76,29.67,7.0,NNW,17.3,21.9,N/A,,Overcast,340,2013-02-27 06:15:00
12:35 AM,35.6,29.1,77,29.68,5.0,NNW,16.1,-,N/A,,Haze,340,2013-02-27 06:35:00
12:55 AM,35.6,29.3,78,29.68,5.0,NNW,15.0,-,N/A,,Haze,340,2013-02-27 06:55:00
1:15 AM,35.2,29.3,79,29.68,7.0,NNW,15.0,19.6,N/A,,Overcast,340,2013-02-27 07:15:00
1:35 AM,35.2,28.4,76,29.68,10.0,NNW,16.1,-,N/A,,Overcast,340,2013-02-27 07:35:00
1:55 AM,35.1,28.4,77,29.68,10.0,NNW,16.1,-,N/A,,Overcast,340,2013-02-27 07:55:00
2:15 AM,35.1,27.5,74,29.68,10.0,NNW,13.8,-,N/A,,Overcast,340,2013-02-27 08:15:00
2:35 AM,34.7,28.4,78,29.68,4.0,NNW,12.7,-,N/A,Snow,Light Snow,330,2013-02-27 08:35:00
2:55 AM,34.7,28.6,78,29.68,5.0,NNW,12.7,16.1,N/A,Snow,Light Snow,330,2013-02-27 08:55:00
3:15 AM,34.7,28.4,78,29.68,7.0,NNW,9.2,-,N/A,,Overcast,330,2013-02-27 09:15:00
3:35 AM,34.7,28.4,78,29.69,7.0,NW,11.5,-,N/A,,Overcast,320,2013-02-27 09:35:00
3:55 AM,34.7,28.4,78,29.69,7.0,NNW,11.5,-,N/A,,Overcast,330,2013-02-27 09:55:00
4:15 AM,34.7,28.2,77,29.69,10.0,NW,10.4,-,N/A,,Overcast,320,2013-02-27 10:15:00
4:35 AM,34.7,28.4,78,29.70,5.0,NW,10.4,-,N/A,,Haze,320,2013-02-27 10:35:00
4:55 AM,34.7,29.1,80,29.69,4.0,NW,10.4,-,N/A,Snow,Light Snow,320,2013-02-27 10:55:00
5:15 AM,34.7,29.3,81,29.69,4.0,NW,10.4,-,N/A,,Haze,320,2013-02-27 11:15:00
5:35 AM,34.7,29.5,81,29.69,4.0,NW,10.4,-,N/A,Snow,Light Snow,320,2013-02-27 11:35:00
5:55 AM,34.7,29.3,81,29.70,5.0,NNW,15.0,-,N/A,Snow,Light Snow,330,2013-02-27 11:55:00
6:15 AM,34.7,29.1,80,29.70,5.0,NW,13.8,17.3,N/A,Snow,Light Snow,320,2013-02-27 12:15:00
6:35 AM,34.7,28.8,79,29.70,7.0,NW,10.4,-,N/A,,Overcast,320,2013-02-27 12:35:00
6:55 AM,34.7,28.9,79,29.71,7.0,NW,9.2,-,N/A,,Overcast,320,2013-02-27 12:55:00
7:15 AM,34.7,28.4,78,29.71,4.0,NNW,12.7,-,N/A,Snow,Light Snow,330,2013-02-27 13:15:00
7:35 AM,34.7,28.8,79,29.72,2.5,NNW,10.4,-,N/A,Snow,Light Snow,330,2013-02-27 13:35:00
7:55 AM,34.7,29.1,80,29.72,1.2,NNW,11.5,-,N/A,Snow,Light Snow,330,2013-02-27 13:55:00
8:15 AM,35.1,28.8,78,29.73,1.2,NNW,11.5,-,N/A,Snow,Light Snow,330,2013-02-27 14:15:00
8:35 AM,35.6,29.1,77,29.73,1.5,NNW,10.4,-,N/A,Snow,Light Snow,330,2013-02-27 14:35:00
9:15 AM,36.0,29.3,77,29.73,1.0,WNW,6.9,-,N/A,Snow,Light Snow,300,2013-02-27 15:15:00
9:35 AM,36.3,29.3,76,29.74,1.2,NW,8.1,-,N/A,Snow,Light Snow,310,2013-02-27 15:35:00
9:55 AM,36.9,29.3,74,29.74,1.0,NW,10.4,-,N/A,Snow,Light Snow,320,2013-02-27 15:55:00
10:15 AM,36.7,29.3,75,29.74,1.2,NW,10.4,-,N/A,Snow,Light Snow,320,2013-02-27 16:15:00
10:55 AM,37.4,29.3,73,29.75,1.5,NW,11.5,17.3,N/A,Snow,Light Snow,320,2013-02-27 16:55:00
11:15 AM,37.0,29.7,75,29.75,0.8,NW,8.1,-,N/A,Snow,Light Snow,310,2013-02-27 17:15:00
11:35 AM,37.2,29.1,73,29.74,0.8,NW,10.4,18.4,N/A,Snow,Light Snow,310,2013-02-27 17:35:00
12:15 PM,36.7,28.9,74,29.75,1.0,NW,10.4,16.1,N/A,Snow,Light Snow,310,2013-02-27 18:15:00
12:35 PM,36.9,28.9,73,29.74,1.0,NW,11.5,-,N/A,Snow,Light Snow,310,2013-02-27 18:35:00
12:55 PM,36.5,28.9,74,29.74,1.0,NW,11.5,18.4,N/A,Snow,Light Snow,320,2013-02-27 18:55:00
1:15 PM,36.5,28.9,74,29.75,1.0,NW,12.7,18.4,N/A,Snow,Light Snow,310,2013-02-27 19:15:00
1:35 PM,36.5,29.1,75,29.75,1.2,NW,13.8,-,N/A,Snow,Light Snow,320,2013-02-27 19:35:00
1:55 PM,36.7,29.1,74,29.75,1.5,NW,11.5,17.3,N/A,Snow,Light Snow,310,2013-02-27 19:55:00
2:15 PM,36.7,29.1,74,29.76,1.2,NW,11.5,16.1,N/A,Snow,Light Snow,310,2013-02-27 20:15:00
2:35 PM,36.7,28.8,73,29.76,1.8,NW,12.7,-,N/A,Snow,Light Snow,310,2013-02-27 20:35:00
2:55 PM,36.5,28.8,74,29.77,2.0,NW,12.7,17.3,N/A,Snow,Light Snow,310,2013-02-27 20:55:00
3:15 PM,36.5,28.6,73,29.78,3.0,WNW,11.5,17.3,N/A,Snow,Light Snow,300,2013-02-27 21:15:00
3:35 PM,36.7,28.8,73,29.78,2.0,NW,13.8,-,N/A,Snow,Light Snow,310,2013-02-27 21:35:00
3:55 PM,36.7,28.4,72,29.78,4.0,NW,12.7,-,N/A,Snow,Light Snow,310,2013-02-27 21:55:00
4:15 PM,36.7,28.4,72,29.79,4.0,NW,12.7,17.3,N/A,Snow,Light Snow,310,2013-02-27 22:15:00
4:35 PM,36.5,28.4,72,29.80,1.5,NW,12.7,19.6,N/A,Snow,Light Snow,310,2013-02-27 22:35:00
4:55 PM,36.1,29.1,76,29.80,1.5,WNW,10.4,16.1,N/A,Snow,Light Snow,300,2013-02-27 22:55:00
5:15 PM,36.0,29.5,77,29.81,1.2,WNW,10.4,-,N/A,Snow,Light Snow,300,2013-02-27 23:15:00
5:35 PM,35.8,29.7,78,29.82,1.0,WNW,9.2,-,N/A,Snow,Light Snow,300,2013-02-27 23:35:00
5:55 PM,35.6,29.8,80,29.82,1.2,WNW,11.5,16.1,N/A,Snow,Light Snow,300,2013-02-27 23:55:00
6:15 PM,35.8,29.7,78,29.83,7.0,WNW,10.4,16.1,N/A,Snow,Light Snow,300,2013-02-28 00:15:00
6:35 PM,36.0,29.3,77,29.84,10.0,WNW,11.5,-,N/A,Snow,Light Snow,300,2013-02-28 00:35:00
6:55 PM,36.1,29.3,76,29.84,10.0,WNW,11.5,18.4,N/A,,Overcast,300,2013-02-28 00:55:00
7:15 PM,36.1,29.3,76,29.84,10.0,NW,9.2,18.4,N/A,,Overcast,310,2013-02-28 01:15:00
7:35 PM,35.6,29.1,77,29.84,7.0,WNW,11.5,16.1,N/A,Snow,Light Snow,300,2013-02-28 01:35:00
8:15 PM,35.6,29.3,78,29.85,5.0,WNW,11.5,19.6,N/A,Snow,Light Snow,300,2013-02-28 02:15:00
8:35 PM,35.2,29.3,79,29.85,7.0,WNW,11.5,-,N/A,Snow,Light Snow,300,2013-02-28 02:35:00
8:55 PM,35.4,29.3,78,29.85,5.0,WNW,11.5,-,N/A,Snow,Light Snow,300,2013-02-28 02:55:00
9:15 PM,35.6,29.3,78,29.86,7.0,WNW,10.4,-,N/A,Snow,Light Snow,300,2013-02-28 03:15:00
9:35 PM,35.6,29.3,78,29.86,5.0,WNW,9.2,-,N/A,Snow,Light Snow,290,2013-02-28 03:35:00
9:55 PM,35.1,29.7,81,29.87,1.8,WNW,10.4,-,N/A,Snow,Light Snow,290,2013-02-28 03:55:00
10:35 PM,35.2,30.2,82,29.87,2.0,WNW,10.4,-,N/A,Snow,Light Snow,300,2013-02-28 04:35:00
10:55 PM,35.6,30.2,81,29.87,2.5,WNW,10.4,-,N/A,Snow,Light Snow,300,2013-02-28 04:55:00
11:15 PM,35.6,30.2,81,29.87,4.0,WNW,10.4,-,N/A,Snow,Light Snow,300,2013-02-28 05:15:00
11:35 PM,35.6,30.4,81,29.87,3.0,WNW,10.4,-,N/A,Snow,Light Snow,300,2013-02-28 05:35:00
11:55 PM,36.0,30.4,80,29.88,5.0,NW,9.2,-,N/A,Snow,Light Snow,310,2013-02-28 05:55:00